GW2019 Weather Reports


time (UTC)temp
C
wind
direction
speed
KPH
gust
KPH
rain 1hr
cm
rain 24hr
cm
rain mn
cm
humidity
%
barometer
mb
20260507132518 5 270 4.8 9.7 0.00 0.00 0.00 65 1017.1
20260507131617 3 270 4.8 9.7 0.00 0.00 0.00 69 1017.1
20260507130618 3 247 3.2 6.4 0.00 0.00 0.00 75 1017.4
20260507125619 2 225 3.2 6.4 0.00 0.00 0.00 78 1017.4
20260507124718 2 202 3.2 6.4 0.00 0.00 0.00 82 1017.4
20260507123817 2 202 0.0 0.0 0.00 0.00 0.00 85 1017.4
20260507121821 1 202 3.2 4.8 0.00 0.00 0.00 88 1017.8
20260507120821 0 202 0.0 0.0 0.00 0.00 0.00 87 1017.8
20260507115918 -1 202 0.0 0.0 0.00 0.00 0.00 86 1017.8
20260507114919 -1 202 0.0 0.0 0.00 0.00 0.00 86 1017.8
20260507114018 -1 202 1.6 4.8 0.00 0.00 0.00 86 1018.1
20260507113019 -1 202 1.6 3.2 0.00 0.00 0.00 86 1018.1
20260507112018 -1 202 0.0 0.0 0.00 0.00 0.00 86 1017.8
20260507111020 -1 202 0.0 0.0 0.00 0.00 0.00 86 1017.8
20260507110019 -2 202 0.0 0.0 0.00 0.00 0.00 87 1018.1
20260507105117 -2 202 0.0 0.0 0.00 0.00 0.00 87 1018.5
20260507104119 -2 202 0.0 0.0 0.00 0.00 0.00 86 1018.5
20260507103217 -2 202 0.0 0.0 0.00 0.00 0.00 85 1018.5
20260507102217 -2 202 0.0 0.0 0.00 0.00 0.00 84 1018.1
20260507101220 -2 202 1.6 3.2 0.00 0.00 0.00 85 1018.1
20260507100318 -2 202 3.2 4.8 0.00 0.00 0.00 85 1018.1
20260507095319 -2 202 3.2 4.8 0.00 0.00 0.00 84 1018.1
20260507093319 -2 202 3.2 4.8 0.00 0.00 0.00 83 1018.1
20260507092417 -2 202 3.2 6.4 0.00 0.00 0.00 83 1018.1
20260507091435 -2 202 3.2 6.4 0.00 0.00 0.00 84 1018.1
20260507090520 -2 202 4.8 6.4 0.00 0.00 0.00 82 1018.1
20260507085519 -1 202 3.2 6.4 0.00 0.00 0.00 84 1018.1
20260507084519 -2 202 3.2 6.4 0.00 0.00 0.00 83 1018.1
20260507083519 -1 202 3.2 4.8 0.00 0.00 0.00 82 1018.1
20260507082519 -1 202 4.8 6.4 0.00 0.00 0.00 82 1018.1
20260507080618 -1 202 1.6 3.2 0.00 0.00 0.00 83 1018.1
20260507075618 -1 202 1.6 3.2 0.00 0.00 0.00 81 1018.1
20260507074621 -1 202 1.6 3.2 0.00 0.00 0.00 81 1018.5
20260507073719 -1 202 3.2 4.8 0.00 0.00 0.00 81 1018.5
20260507072718 -1 202 3.2 4.8 0.00 0.00 0.00 80 1018.3
20260507071719 -1 202 4.8 6.4 0.00 0.00 0.00 79 1018.3
20260507070718 -1 202 3.2 4.8 0.00 0.00 0.00 79 1018.5
20260507065816 0 202 1.6 4.8 0.00 0.00 0.00 78 1018.5
20260507063918 0 202 3.2 4.8 0.00 0.00 0.00 78 1018.5
20260507062919 0 202 6.4 8.0 0.00 0.00 0.00 76 1018.5
20260507061917 0 202 4.8 8.0 0.00 0.00 0.00 75 1018.5
20260507060918 0 202 4.8 8.0 0.00 0.00 0.00 74 1018.5
20260507055920 0 202 3.2 4.8 0.00 0.00 0.00 74 1018.5
20260507053919 0 202 4.8 6.4 0.00 0.00 0.00 72 1018.5
20260507052018 0 202 3.2 4.8 0.00 0.00 0.00 71 1018.5
20260507051020 1 202 3.2 4.8 0.00 0.00 0.00 70 1018.5
20260507050032 1 202 1.6 3.2 0.00 0.00 0.00 68 1018.5
20260507045129 1 202 1.6 3.2 0.00 0.00 0.00 68 1018.5
20260507044129 1 202 4.8 6.4 0.00 0.00 0.00 67 1018.5
20260507043146 2 202 6.4 9.7 0.00 0.00 0.00 66 1018.5
20260507042230 2 202 1.6 3.2 0.00 0.00 0.00 65 1018.5
20260507040230 3 202 3.2 6.4 0.00 0.00 0.00 64 1018.5
20260507035329 3 202 1.6 4.8 0.00 0.00 0.00 64 1018.5
20260507034330 3 202 3.2 4.8 0.00 0.00 0.00 63 1018.5
20260507033429 3 247 0.0 0.0 0.00 0.00 0.00 63 1018.5
20260507032429 3 247 0.0 0.0 0.00 0.00 0.00 62 1018.5
20260507031430 2 270 0.0 0.0 0.00 0.00 0.00 63 1018.5
20260507030430 3 270 0.0 0.0 0.00 0.00 0.00 63 1018.5
20260507025430 3 292 0.0 0.0 0.00 0.00 0.00 63 1018.5
20260507024429 3 292 0.0 0.0 0.00 0.00 0.00 59 1018.8
20260507023430 3 292 0.0 0.0 0.00 0.00 0.00 60 1018.8
20260507022528 3 292 0.0 0.0 0.00 0.00 0.00 60 1018.8
20260507021531 3 292 0.0 0.0 0.00 0.00 0.00 57 1018.8
20260507020431 3 292 0.0 0.0 0.00 0.00 0.00 56 1018.8
20260507015432 3 292 0.0 0.0 0.00 0.00 0.00 55 1018.5
20260507013529 4 292 1.6 3.2 0.00 0.00 0.00 55 1018.5
20260507012529 4 292 0.0 1.6 0.00 0.00 0.00 55 1018.5
20260507011530 4 292 3.2 4.8 0.00 0.00 0.00 55 1018.5
20260507010530 4 292 6.4 9.7 0.00 0.00 0.00 54 1018.5
20260507005530 5 315 6.4 9.7 0.00 0.00 0.00 54 1018.5
20260507004529 5 270 6.4 11.3 0.00 0.00 0.00 53 1018.5
20260507003529 5 299 9.7 12.9 0.00 0.00 0.00 53 1018.5
20260507002530 5 298 12.9 16.1 0.00 0.00 0.00 52 1018.5
20260507001530 5 315 6.4 12.9 0.00 0.00 0.00 53 1018.5
20260507000531 5 315 11.3 14.5 0.00 0.00 0.00 52 1018.5
20260506235629 5 284 8.0 14.5 0.00 0.00 0.00 51 1018.5
20260506234631 5 273 8.0 14.5 0.00 0.00 0.00 51 1018.5
20260506233729 5 275 6.4 11.3 0.00 0.00 0.00 52 1018.5
20260506232828 5 276 8.0 14.5 0.00 0.00 0.00 51 1018.5
20260506231828 5 274 9.7 16.1 0.00 0.00 0.00 50 1018.5
20260506230829 5 272 12.9 22.5 0.00 0.00 0.00 52 1018.5
20260506225830 5 298 12.9 19.3 0.00 0.00 0.00 51 1018.5
20260506224930 5 268 12.9 19.3 0.00 0.00 0.00 52 1018.8
20260506223929 5 261 11.3 14.5 0.00 0.00 0.00 52 1018.8
20260506222929 5 269 14.5 19.3 0.00 0.00 0.00 52 1018.5
20260506221930 5 269 12.9 17.7 0.00 0.00 0.00 51 1018.8
20260506220932 5 271 16.1 22.5 0.00 0.00 0.00 51 1018.8
20260506215930 5 270 12.9 20.9 0.00 0.00 0.00 51 1018.8
20260506214929 5 296 12.9 20.9 0.00 0.00 0.00 52 1018.8
20260506214029 5 276 11.3 14.5 0.00 0.00 0.00 52 1018.8
20260506212029 5 254 16.1 25.7 0.00 0.00 0.00 50 1019.2
20260506211030 5 254 11.3 20.9 0.00 0.00 0.00 51 1018.8
20260506205028 5 311 17.7 24.1 0.00 0.00 0.00 50 1019.2
20260506204028 5 298 11.3 20.9 0.00 0.00 0.00 52 1019.2
20260506203030 5 298 11.3 19.3 0.00 0.00 0.00 54 1019.2
20260506202029 5 282 11.3 24.1 0.00 0.00 0.00 53 1019.5
20260506201030 4 296 11.3 19.3 0.00 0.00 0.00 54 1019.2
20260506195029 5 274 14.5 19.3 0.00 0.00 0.00 54 1019.5
20260506194030 5 305 12.9 20.9 0.00 0.00 0.00 54 1019.5
20260506193028 4 273 14.5 19.3 0.00 0.00 0.00 54 1019.5
20260506192029 5 274 11.3 16.1 0.00 0.00 0.00 54 1019.5
20260506191029 5 297 12.9 19.3 0.00 0.00 0.00 54 1019.5
20260506185029 4 300 11.3 19.3 0.00 0.00 0.00 56 1019.5
20260506184128 4 276 11.3 16.1 0.00 0.00 0.00 56 1019.5
20260506183130 4 288 11.3 16.1 0.00 0.00 0.00 56 1019.5
20260506182129 4 318 11.3 16.1 0.00 0.00 0.00 58 1019.5
20260506180128 3 277 9.7 14.5 0.00 0.00 0.00 57 1019.9
20260506175129 3 263 12.9 19.3 0.00 0.00 0.00 57 1019.9
20260506174130 3 307 14.5 20.9 0.00 0.00 0.00 58 1019.9
20260506173128 3 281 12.9 19.3 0.00 0.00 0.00 58 1019.5
20260506172129 3 308 12.9 20.9 0.00 0.00 0.00 58 1019.9
20260506171146 3 304 11.3 19.3 0.00 0.00 0.00 57 1019.9
20260506170228 3 308 16.1 24.1 0.00 0.00 0.00 58 1019.9
20260506165230 3 304 14.5 22.5 0.00 0.00 0.00 55 1019.9
20260506164229 3 286 12.9 25.7 0.00 0.00 0.00 54 1019.9
20260506163229 3 271 11.3 14.5 0.00 0.00 0.00 56 1019.5
20260506160329 3 318 16.1 22.5 0.00 0.00 0.00 58 1019.9
20260506155427 3 281 8.0 12.9 0.00 0.00 0.00 61 1019.9
20260506154444 3 311 11.3 14.5 0.00 0.00 0.00 61 1019.9
20260506153429 3 310 12.9 20.9 0.00 0.00 0.00 62 1019.9
20260506152430 3 247 9.7 14.5 0.00 0.00 0.00 61 1019.9
20260506151429 3 247 6.4 11.3 0.00 0.00 0.00 62 1019.9
20260506150429 3 276 9.7 12.9 0.00 0.00 0.00 62 1019.9
20260506145527 3 298 11.3 17.7 0.00 0.00 0.00 62 1019.9
20260506144529 3 348 9.7 14.5 0.00 0.00 0.00 63 1019.9
20260506143627 2 225 8.0 14.5 0.00 0.00 0.00 63 1019.9
20260506142628 2 281 8.0 12.9 0.00 0.00 0.00 64 1019.9
20260506141628 2 254 6.4 9.7 0.00 0.00 0.00 64 1019.9
20260506140628 2 294 6.4 9.7 0.00 0.00 0.00 65 1019.9
20260506135629 2 337 11.3 16.1 0.00 0.00 0.00 67 1019.9
20260506134630 2 316 8.0 14.5 0.00 0.00 0.00 66 1019.6
20260506133629 2 330 9.7 14.5 0.00 0.00 0.00 67 1019.3